Wetbulb
63.40 65.96 64.20 57.59 47.77 46.51 45.46 46.06 46.02 47.67 49.30 52.54 55.74 54.85 53.15 54.67 52.50 47.31 61.97 64.99 65.55 66.17 68.05 68.84 70.28 70.40 70.16 70.22 69.45 69.10 70.07 69.96 69.68 69.21 68.60 68.59 69.53 70.06 69.21 68.25 67.95 67.37 66.74 66.58 65.76 64.90 64.32 64.32 64.23
61.71 65.07 57.55 51.62 46.56 43.96 44.23 46.96 46.94 48.09 53.30 56.33 55.37 55.55 55.26 53.39 59.83 60.69 61.94 65.16 65.87 66.70 68.16 68.73 69.68 70.70 70.16 70.11 70.09 70.36 70.06 69.66 69.20 68.50 68.03 67.68 67.24 67.14 68.20 68.16 68.39 67.76 66.75 66.45 65.91 64.98 64.30 63.52 62.97
61.88 61.26 52.09 48.44 45.48 42.94 43.53 45.92 46.22 50.76 54.10 51.92 53.34 56.53 56.15 55.92 59.98 61.48 63.86 65.22 65.79 66.53 67.72 68.61 69.60 70.63 69.91 69.15 68.99 68.81 68.40 67.86 67.29 66.78 66.50 66.47 66.35 66.00 65.35 65.79 67.00 67.71 67.50 66.51 65.82 65.18 64.64 64.01 63.60
57.83 54.95 51.21 45.68 44.39 50.04 48.68 47.75 48.56 49.49 49.96 54.72 54.11 53.36 57.50 61.50 61.58 63.22 64.87 65.61 65.25 65.89 66.94 68.62 70.12 70.74 69.58 69.02 68.80 68.32 68.01 67.90 67.27 66.66 66.15 65.90 65.62 65.80 65.37 64.78 64.97 65.58 66.94 67.07 65.84 65.31 64.69 64.27 64.16
55.12 51.75 45.12 43.12 45.27 51.85 49.64 50.59 50.23 48.28 48.14 49.28 52.47 52.52 55.15 61.38 64.05 64.45 64.29 65.18 64.90 65.11 66.10 68.15 69.69 70.26 69.90 69.50 69.20 68.86 68.62 67.93 66.90 65.93 65.85 65.11 64.84 65.17 64.55 64.74 64.16 64.11 64.42 65.31 66.02 65.65 64.89 64.53 64.67
49.29 49.73 43.78 41.56 45.23 50.75 48.77 50.33 49.49 47.97 48.37 52.49 54.58 53.76 55.08 62.30 63.24 63.35 63.30 63.08 65.48 65.13 66.20 67.50 66.61 68.29 69.21 69.70 69.85 69.84 69.70 68.49 67.26 66.17 65.78 65.29 64.75 65.13 64.86 64.59 64.62 63.76 63.32 63.30 63.53 64.25 64.35 64.60 64.51
47.19 46.72 43.64 43.66 46.26 47.02 49.44 50.83 47.24 47.83 48.38 49.30 56.39 52.69 57.38 59.30 63.12 63.96 63.71 63.91 64.17 64.91 65.31 65.78 66.53 66.40 66.17 67.71 68.18 68.92 69.47 68.87 68.15 67.78 67.09 66.60 66.23 65.74 65.71 66.04 65.33 64.80 64.47 64.03 63.78 63.72 63.59 63.15 62.66
49.45 47.69 43.20 45.02 44.47 46.30 49.61 50.10 49.87 48.39 46.72 54.20 56.84 52.57 55.36 59.68 63.42 64.16 63.96 63.22 63.04 63.59 64.08 63.93 64.51 65.12 65.35 65.70 65.01 65.84 67.24 67.46 67.34 66.84 65.94 64.91 64.75 64.86 64.75 64.06 65.20 65.38 65.47 65.31 65.21 65.37 64.60 64.48 64.55
50.94 43.36 42.30 44.57 46.55 48.64 49.36 49.20 50.64 50.15 50.55 51.79 53.92 56.76 58.14 62.47 63.56 62.86 62.11 61.69 62.07 62.73 62.84 63.19 63.42 63.45 63.78 64.21 64.44 63.34 64.62 65.01 64.93 64.52 63.38 62.77 63.11 63.30 63.02 62.22 63.38 65.16 66.17 66.48 66.53 66.59 66.09 64.97 64.11
46.61 42.18 43.74 49.20 48.17 48.31 49.75 49.71 50.69 49.57 50.81 52.05 54.86 58.72 61.48 62.58 62.43 61.17 60.84 60.66 60.54 60.67 61.50 62.58 62.73 62.76 62.96 64.99 63.76 63.95 64.78 64.86 64.25 63.94 63.07 62.40 62.00 61.92 62.62 61.09 61.45 63.20 63.55 65.03 66.21 66.52 65.36 62.82 61.15
47.12 43.23 46.35 48.49 50.35 51.00 50.04 49.52 50.07 49.72 47.10 52.47 54.44 58.59 60.29 61.31 61.23 60.95 60.53 61.11 61.19 61.50 62.20 62.80 62.75 62.68 62.25 62.38 61.88 61.73 62.36 62.36 62.91 63.03 62.58 61.90 61.92 60.07 60.59 61.05 61.00 60.54 59.31 60.30 61.61 61.38 61.25 60.71 60.26
46.01 48.90 47.50 49.66 51.24 50.32 48.98 51.60 49.13 49.66 49.49 53.99 59.15 60.81 60.12 60.30 60.45 60.75 60.44 60.57 60.76 61.35 62.68 63.58 63.46 62.93 62.67 62.67 61.32 61.08 61.05 60.86 61.15 62.39 62.43 61.12 59.86 59.25 58.41 58.80 59.70 59.57 59.76 59.28 59.25 59.24 59.76 59.65 59.86
48.35 47.74 49.56 49.57 49.74 49.45 50.98 50.01 49.52 49.04 53.11 59.20 60.23 60.80 59.74 59.61 60.01 60.91 61.67 61.74 61.55 61.20 62.40 63.21 63.46 63.01 63.30 62.50 61.62 60.69 60.40 60.58 60.51 60.55 61.01 60.78 59.45 58.89 59.00 58.77 58.88 58.90 59.23 59.04 58.96 58.93 59.34 59.35 59.46
50.01 49.80 49.21 49.43 48.95 49.98 48.75 48.84 50.19 49.72 56.35 58.50 59.64 58.90 59.41 59.37 59.29 59.44 59.86 60.68 61.14 62.15 62.15 62.61 63.45 63.71 63.24 62.62 61.65 61.56 61.36 61.33 61.12 61.01 61.12 61.01 60.30 59.53 59.51 59.39 59.40 59.18 59.57 59.74 59.63 59.57 59.48 59.62 59.19
51.02 46.12 47.03 46.72 47.99 48.84 49.14 46.47 47.85 51.05 56.23 57.25 57.76 57.21 57.96 59.01 59.48 59.90 60.20 60.27 61.54 61.90 62.37 61.97 62.62 63.16 62.65 62.36 62.23 62.16 62.26 62.53 61.63 61.73 62.00 61.84 61.63 60.59 60.23 59.81 59.79 60.15 60.60 60.34 59.90 59.59 59.31 58.92 59.43
47.64 46.19 40.01 45.13 47.86 48.31 48.17 42.99 48.16 53.59 55.32 54.83 55.13 55.33 57.36 58.54 59.38 59.65 59.89 60.10 60.56 61.01 61.46 62.15 63.30 62.59 62.31 62.13 62.29 62.32 62.46 62.14 61.94 61.87 61.97 62.12 62.18 61.88 60.94 60.35 60.39 60.96 60.76 60.48 59.97 59.68 59.46 59.72 60.50
44.89 40.53 39.99 42.43 45.01 45.59 46.63 43.65 47.87 51.94 54.05 53.36 53.88 54.32 56.12 56.90 57.59 58.86 59.79 59.62 60.22 60.51 60.74 61.06 61.92 62.00 62.16 62.24 62.15 62.08 62.48 62.29 62.46 62.33 62.15 62.39 62.58 62.50 61.65 61.19 61.51 61.30 61.23 61.40 61.09 60.31 60.72 61.13 61.14
38.48 40.38 42.31 41.08 42.22 43.58 44.21 44.03 45.20 49.74 51.99 52.19 52.17 53.21 54.20 55.39 56.73 57.93 58.23 58.30 58.40 59.30 59.52 59.81 60.45 61.17 61.51 61.65 61.28 61.20 61.18 61.63 61.79 61.84 62.14 62.71 62.74 63.39 63.31 62.86 62.50 62.73 62.53 62.03 60.58 59.18 58.65 57.82 56.09
44.46 42.97 42.72 42.44 43.76 41.34 42.98 43.50 44.77 46.25 48.48 49.08 49.32 50.35 51.94 52.90 47.31 49.23 52.63 52.39 51.32 50.88 52.29 52.77 58.35 53.92 59.67 59.54 59.26 58.98 59.18 59.19 59.65 57.98 59.09 60.15 59.76 58.41 59.84 60.86 59.87 59.23 58.67 57.99 57.58 56.76 55.29 53.53 53.84
44.70 42.20 41.83 44.05 44.96 43.15 41.22 42.22 44.38 44.46 46.19 47.52 49.04 48.28 49.75 45.59 45.00 46.21 46.80 47.27 47.82 48.26 49.49 50.38 50.87 50.92 51.51 52.66 54.09 56.19 55.14 53.52 53.34 53.47 54.17 55.59 55.80 56.32 57.96 57.63 57.10 56.26 55.28 54.20 54.11 53.46 53.13 53.24 53.27
43.22 42.70 42.04 41.88 43.34 43.21 42.13 39.58 41.54 43.40 45.05 45.70 47.77 48.33 46.40 43.87 43.86 44.33 44.99 44.88 46.06 46.75 47.99 48.99 48.79 48.73 48.70 49.88 51.39 51.38 51.64 51.46 51.31 52.00 53.16 53.33 54.12 54.17 54.01 53.70 53.30 52.72 52.63 52.06 52.10 52.39 53.97 52.81 53.49
39.85 45.36 43.94 42.31 40.71 38.01 43.51 36.79 41.67 43.01 42.22 43.63 44.71 43.35 42.50 43.11 43.52 43.83 44.47 44.61 45.31 45.77 46.56 46.95 46.57 46.34 46.78 47.30 48.03 48.45 48.29 48.12 48.47 49.20 49.87 50.98 52.16 52.37 52.65 52.26 51.54 50.91 50.80 50.30 50.55 52.50 52.87 53.90 51.15
41.55 45.76 43.53 42.62 39.66 39.00 38.85 37.68 39.95 41.82 41.29 43.55 44.55 41.78 41.34 42.35 43.28 43.70 44.57 45.08 44.86 45.13 45.17 44.33 45.14 44.65 44.33 44.66 45.26 45.39 45.03 45.39 46.19 45.49 45.37 45.99 47.87 49.91 49.18 50.08 49.36 48.64 48.41 47.87 47.87 48.07 48.40 49.34 51.46
45.79 42.76 41.98 41.30 38.01 32.18 36.76 36.85 36.87 39.23 40.71 42.62 41.13 42.33 41.88 42.97 43.27 44.78 45.31 44.68 43.96 44.03 44.09 43.63 43.59 42.68 42.83 42.73 42.53 42.26 41.77 41.87 41.78 41.72 41.70 42.46 43.58 45.15 44.92 45.70 45.43 45.48 45.11 45.02 45.51 45.90 45.53 45.44 45.42
42.51 38.55 29.80 29.03 29.23 29.69 36.81 34.40 37.24 42.44 44.38 42.79 41.77 42.06 43.52 44.32 44.12 43.63 43.32 42.78 42.59 41.91 42.76 42.65 42.26 41.40 41.41 40.89 40.38 40.25 39.97 39.80 39.55 39.55 39.71 39.79 40.35 40.99 41.28 41.40 41.42 41.85 42.16 42.34 42.57 42.52 42.48 42.78 42.09
39.77 37.84 31.08 25.69 26.00 25.99 33.68 31.81 36.57 42.54 43.97 43.99 43.90 43.72 43.67 43.30 43.30 43.45 43.27 43.15 41.99 41.65 41.16 41.03 40.92 40.40 40.24 39.89 39.34 39.21 39.09 38.57 38.26 38.08 37.97 37.85 37.90 38.39 38.86 38.34 38.45 38.60 39.21 39.36 39.70 39.65 39.85 40.32 39.41
39.13 34.57 37.34 29.39 26.95 26.53 29.33 32.04 35.44 37.74 37.54 40.99 41.55 42.07 42.05 41.44 42.19 42.57 42.85 42.86 42.33 41.48 40.85 40.24 39.96 39.66 39.44 39.11 38.78 38.07 37.84 37.44 36.82 36.65 36.46 36.27 36.49 37.89 36.69 36.40 36.23 36.58 36.89 37.26 36.89 37.21 36.90 37.39 37.50
40.63 40.31 31.42 31.11 24.09 22.62 25.07 26.65 30.03 33.81 35.85 38.79 39.49 39.07 39.43 40.92 41.31 41.14 41.04 40.85 40.94 41.31 39.89 39.41 38.84 37.98 37.77 37.51 37.15 36.60 36.01 35.87 35.37 35.01 34.23 34.20 34.64 35.03 34.98 35.02 35.37 35.70 35.45 35.46 35.21 34.92 35.28 34.97 35.20
36.99 34.71 33.78 33.48 29.61 24.10 22.32 26.67 33.22 35.54 37.49 38.60 39.83 40.64 41.19 41.05 40.86 40.64 40.36 40.77 40.79 39.85 38.47 36.91 36.53 36.28 36.26 36.29 35.41 34.65 34.04 33.80 33.75 33.04 32.76 32.95 33.35 33.78 33.50 33.79 33.91 33.88 33.74 33.60 33.05 32.75 33.20 32.66 32.87
37.73 37.10 34.42 29.29 26.22 27.78 27.74 27.02 35.75 36.08 36.67 38.14 38.32 40.09 40.55 41.30 41.14 40.97 40.25 40.14 38.71 37.77 35.97 35.10 35.26 35.34 35.37 35.44 34.09 33.25 32.71 32.17 31.75 31.55 31.68 32.14 31.65 32.63 32.44 32.46 32.19 31.99 31.96 31.71 31.25 31.01 31.20 30.95 30.88
MSLP
1014.07 1014.07 1014.23 1014.40 1015.46 1015.34 1014.63 1014.05 1013.40 1013.38 1013.55 1013.59 1013.69 1014.14 1014.91 1015.70 1016.16 1017.26 1016.67 1016.89 1017.09 1017.65 1018.02 1018.25 1018.56 1018.84 1019.12 1019.29 1019.53 1019.72 1019.76 1019.83 1019.92 1020.04 1020.11 1020.19 1020.26 1020.34 1020.41 1020.46 1020.53 1020.60 1020.67 1020.71 1020.75 1020.79 1020.83 1020.85 1020.87
1014.13 1014.20 1014.48 1014.91 1015.33 1015.19 1014.52 1013.86 1013.54 1013.29 1013.60 1013.70 1013.99 1014.54 1015.18 1015.99 1016.27 1016.80 1017.20 1017.30 1017.26 1017.67 1018.11 1018.37 1018.69 1019.03 1019.33 1019.54 1019.71 1019.82 1019.95 1020.06 1020.21 1020.34 1020.46 1020.55 1020.63 1020.73 1020.77 1020.80 1020.81 1020.77 1020.86 1020.92 1020.95 1021.01 1021.05 1021.07 1021.05
1013.99 1014.20 1014.96 1015.17 1015.41 1015.07 1014.41 1013.77 1013.66 1013.51 1013.64 1013.81 1014.47 1014.88 1015.52 1016.16 1016.58 1016.74 1016.87 1017.37 1017.63 1018.00 1018.27 1018.57 1018.86 1019.19 1019.48 1019.78 1019.95 1020.09 1020.25 1020.37 1020.51 1020.68 1020.81 1020.90 1020.97 1021.05 1021.08 1021.08 1021.10 1021.05 1020.98 1021.08 1021.14 1021.19 1021.22 1021.22 1021.19
1014.07 1014.67 1015.45 1015.25 1015.05 1014.26 1013.85 1013.55 1013.71 1013.81 1013.89 1014.03 1014.63 1015.58 1015.91 1015.99 1016.28 1016.55 1017.07 1017.46 1017.94 1018.36 1018.58 1018.76 1018.97 1019.27 1019.57 1019.87 1020.12 1020.33 1020.49 1020.65 1020.83 1020.95 1021.04 1021.12 1021.23 1021.31 1021.34 1021.35 1021.38 1021.39 1021.35 1021.11 1021.26 1021.33 1021.35 1021.33 1021.29
1014.49 1015.23 1015.54 1015.27 1014.63 1013.38 1013.31 1013.16 1013.61 1013.93 1013.95 1014.45 1014.75 1016.02 1016.49 1016.51 1016.32 1016.81 1017.38 1017.70 1018.24 1018.65 1018.95 1019.10 1019.21 1019.40 1019.68 1019.95 1020.24 1020.46 1020.65 1020.82 1020.99 1021.12 1021.21 1021.30 1021.38 1021.44 1021.51 1021.53 1021.54 1021.53 1021.51 1021.46 1021.38 1021.41 1021.46 1021.41 1021.36
1015.33 1015.73 1015.82 1015.24 1014.30 1013.10 1012.84 1013.05 1013.58 1013.98 1014.18 1014.75 1015.27 1016.05 1016.92 1017.01 1016.77 1017.30 1017.72 1018.11 1018.38 1018.78 1019.15 1019.38 1019.57 1019.78 1020.02 1020.21 1020.36 1020.56 1020.73 1020.91 1021.10 1021.24 1021.37 1021.49 1021.54 1021.52 1021.49 1021.54 1021.59 1021.61 1021.59 1021.56 1021.53 1021.54 1021.51 1021.43 1021.34
1015.74 1016.09 1015.78 1015.04 1014.11 1013.29 1012.91 1013.03 1013.59 1014.10 1014.29 1014.57 1015.02 1016.49 1017.17 1017.40 1017.36 1017.38 1017.93 1018.38 1018.78 1019.11 1019.39 1019.66 1019.82 1020.06 1020.27 1020.43 1020.63 1020.77 1020.87 1020.98 1021.15 1021.28 1021.39 1021.49 1021.52 1021.50 1021.50 1021.54 1021.52 1021.52 1021.54 1021.52 1021.48 1021.39 1021.33 1021.27 1021.19
1015.89 1016.13 1015.91 1014.93 1014.16 1013.33 1012.76 1012.95 1013.16 1013.84 1014.38 1014.62 1014.87 1016.05 1016.83 1017.11 1017.51 1017.88 1018.27 1018.80 1019.20 1019.43 1019.64 1019.96 1020.11 1020.26 1020.45 1020.62 1020.68 1020.81 1020.91 1021.03 1021.18 1021.29 1021.35 1021.40 1021.44 1021.46 1021.45 1021.46 1021.46 1021.40 1021.36 1021.30 1021.25 1021.25 1021.21 1021.18 1021.14
1015.80 1016.32 1015.92 1014.81 1013.97 1013.30 1012.94 1012.91 1013.36 1013.65 1014.30 1014.78 1015.07 1015.41 1015.49 1016.50 1017.57 1018.27 1018.80 1019.32 1019.65 1019.87 1019.99 1020.08 1020.24 1020.36 1020.52 1020.65 1020.79 1020.93 1020.99 1021.10 1021.23 1021.33 1021.42 1021.54 1021.62 1021.63 1021.63 1021.63 1021.59 1021.54 1021.49 1021.45 1021.39 1021.31 1021.22 1021.15 1021.12
1016.09 1016.32 1015.54 1014.40 1013.70 1013.47 1013.19 1013.14 1013.18 1013.79 1014.58 1015.10 1015.46 1015.68 1016.04 1016.67 1017.62 1018.33 1018.83 1019.27 1019.70 1019.97 1020.08 1020.09 1020.30 1020.43 1020.57 1020.55 1020.74 1020.95 1021.13 1021.35 1021.46 1021.50 1021.60 1021.72 1021.75 1021.74 1021.62 1021.59 1021.61 1021.55 1021.50 1021.38 1021.24 1021.13 1021.11 1021.11 1021.07
1016.06 1015.97 1015.25 1014.08 1013.76 1013.59 1013.29 1013.08 1013.22 1013.70 1014.61 1014.64 1015.18 1015.92 1016.51 1016.96 1017.78 1018.39 1018.91 1019.00 1019.22 1019.55 1019.88 1020.02 1020.14 1020.32 1020.52 1020.67 1020.84 1021.04 1021.13 1021.27 1021.40 1021.48 1021.63 1021.73 1021.76 1021.80 1021.80 1021.71 1021.61 1021.52 1021.45 1021.45 1021.31 1021.16 1021.05 1020.99 1020.96
1016.14 1015.57 1015.17 1014.56 1013.83 1013.56 1013.47 1012.81 1013.31 1013.47 1013.64 1013.53 1014.65 1015.19 1016.35 1017.05 1017.71 1018.07 1018.66 1019.00 1019.38 1019.56 1019.62 1019.77 1019.85 1020.17 1020.40 1020.59 1020.78 1020.92 1021.19 1021.24 1021.16 1021.00 1021.04 1021.30 1021.50 1021.65 1021.75 1021.84 1021.72 1021.70 1021.57 1021.46 1021.29 1021.23 1021.08 1020.95 1020.80
1015.93 1015.71 1015.18 1014.56 1014.06 1013.73 1013.47 1013.11 1013.24 1013.56 1013.84 1014.06 1015.07 1015.92 1016.60 1017.10 1017.73 1018.09 1018.36 1018.68 1019.15 1019.52 1019.58 1019.60 1019.62 1019.88 1020.14 1020.40 1020.53 1020.78 1020.84 1020.89 1020.92 1021.10 1021.17 1021.27 1021.33 1021.38 1021.35 1021.35 1021.41 1021.39 1021.34 1021.35 1021.28 1021.18 1020.95 1020.74 1020.55
1015.84 1015.86 1015.21 1014.46 1013.98 1013.75 1013.51 1013.27 1013.39 1013.96 1014.23 1014.92 1015.46 1016.20 1016.74 1017.13 1017.53 1018.09 1018.44 1018.61 1018.99 1019.23 1019.33 1019.38 1019.53 1019.53 1019.80 1020.16 1020.46 1020.56 1020.68 1020.69 1020.87 1020.90 1021.05 1021.32 1021.51 1021.54 1021.39 1021.17 1021.08 1021.07 1021.07 1021.11 1021.07 1020.84 1020.63 1020.39 1020.28
1015.94 1016.04 1015.18 1014.33 1014.07 1013.94 1013.55 1013.74 1013.68 1013.91 1014.72 1015.34 1016.11 1016.54 1016.98 1017.20 1017.51 1017.88 1018.13 1018.38 1018.62 1018.93 1018.99 1019.16 1019.37 1019.42 1019.63 1019.82 1020.10 1020.30 1020.49 1020.65 1020.83 1020.78 1020.77 1020.90 1020.99 1021.09 1021.18 1021.23 1020.99 1020.67 1020.59 1020.59 1020.61 1020.52 1020.37 1020.20 1019.92
1016.07 1016.19 1015.72 1014.61 1014.25 1013.77 1014.04 1013.96 1013.83 1014.30 1014.93 1015.92 1016.36 1016.88 1017.17 1017.30 1017.33 1017.75 1017.91 1018.17 1018.45 1018.66 1018.87 1018.96 1019.11 1019.39 1019.68 1019.81 1019.83 1020.01 1020.20 1020.38 1020.47 1020.59 1020.51 1020.39 1020.37 1020.38 1020.45 1020.53 1020.63 1020.33 1020.18 1020.22 1020.17 1020.24 1020.24 1020.01 1019.74
1016.32 1015.79 1015.67 1015.26 1014.85 1014.32 1014.33 1014.26 1014.02 1014.70 1015.37 1016.09 1016.40 1016.95 1017.34 1017.51 1017.66 1017.72 1017.70 1017.86 1018.22 1018.47 1018.65 1018.90 1019.03 1019.19 1019.41 1019.43 1019.62 1019.85 1019.97 1020.10 1020.01 1020.12 1020.26 1020.29 1020.25 1020.15 1020.25 1020.26 1020.09 1020.07 1020.15 1019.96 1020.11 1020.11 1020.20 1019.92 1019.58
1015.73 1015.94 1015.74 1015.54 1015.39 1014.97 1014.75 1014.64 1014.54 1014.87 1015.45 1016.02 1016.55 1016.97 1017.51 1017.75 1017.58 1017.70 1017.93 1018.17 1018.33 1018.52 1018.77 1018.91 1019.16 1019.39 1019.45 1019.51 1019.76 1019.88 1019.91 1019.88 1019.93 1020.14 1020.22 1020.24 1020.11 1019.88 1019.86 1019.93 1019.97 1019.90 1019.81 1019.84 1019.96 1020.21 1020.16 1020.12 1019.97
1015.37 1015.76 1015.82 1015.79 1015.85 1015.62 1015.39 1015.13 1014.94 1015.22 1015.68 1016.39 1016.79 1017.07 1017.63 1018.08 1018.36 1018.31 1018.41 1018.55 1018.85 1019.10 1019.11 1019.26 1019.33 1019.64 1019.66 1019.91 1020.09 1020.11 1020.19 1020.17 1020.29 1020.31 1020.31 1020.11 1020.13 1020.03 1019.88 1020.05 1019.99 1020.18 1020.28 1020.34 1020.44 1020.39 1020.39 1019.99 1019.88
1015.31 1015.89 1016.22 1016.34 1016.42 1016.18 1016.01 1015.59 1015.27 1015.23 1015.63 1015.87 1016.34 1016.93 1017.73 1018.45 1018.93 1019.19 1019.31 1019.37 1019.50 1019.86 1019.88 1019.95 1020.22 1020.30 1020.23 1020.32 1020.49 1020.62 1020.64 1020.72 1020.71 1020.78 1020.75 1020.70 1020.61 1020.63 1020.42 1020.49 1020.69 1020.60 1020.77 1020.65 1020.71 1020.66 1020.66 1020.33 1019.93
1015.83 1015.58 1016.24 1016.52 1017.10 1016.92 1016.42 1016.19 1015.64 1015.60 1015.57 1015.89 1016.10 1016.78 1017.89 1018.63 1019.36 1019.79 1020.00 1020.33 1020.38 1020.55 1020.64 1020.70 1020.76 1020.91 1020.93 1020.87 1020.79 1020.94 1020.95 1021.01 1021.12 1021.26 1021.41 1021.36 1021.30 1021.20 1021.21 1021.18 1021.27 1021.17 1021.11 1021.12 1021.10 1020.99 1020.87 1020.66 1020.12
1015.98 1016.16 1016.47 1017.13 1017.52 1017.29 1017.25 1016.43 1016.18 1015.95 1016.18 1016.38 1016.92 1017.14 1018.22 1019.24 1019.99 1020.23 1020.57 1020.94 1021.19 1021.36 1021.34 1021.25 1021.37 1021.46 1021.47 1021.43 1021.49 1021.63 1021.97 1022.29 1022.40 1022.28 1022.32 1022.21 1021.80 1021.63 1021.73 1021.63 1021.58 1021.64 1021.48 1021.52 1021.49 1021.27 1021.33 1021.24 1020.75
1016.24 1016.39 1017.04 1017.69 1018.01 1018.22 1018.15 1018.23 1016.48 1016.63 1017.00 1016.92 1017.66 1018.23 1018.71 1019.52 1020.11 1020.49 1020.87 1021.42 1021.96 1022.04 1021.80 1022.20 1022.13 1021.78 1022.08 1022.16 1022.23 1022.35 1022.70 1022.92 1022.77 1022.61 1022.46 1022.55 1022.41 1022.20 1022.25 1022.27 1022.12 1022.17 1022.09 1021.88 1021.74 1021.52 1021.44 1021.46 1021.33
1016.45 1017.06 1017.84 1018.54 1018.94 1019.03 1018.38 1018.29 1017.46 1016.95 1016.88 1017.05 1018.75 1018.67 1019.17 1019.63 1020.28 1021.05 1021.51 1021.50 1022.05 1022.62 1022.22 1022.61 1022.89 1022.81 1022.66 1022.88 1023.03 1023.13 1023.47 1023.45 1023.34 1023.25 1023.32 1023.23 1023.09 1022.91 1022.90 1022.82 1022.67 1022.54 1022.35 1022.19 1022.00 1021.66 1021.63 1021.47 1021.36
1016.64 1017.23 1018.86 1019.50 1019.60 1019.32 1018.98 1019.05 1018.03 1017.41 1017.25 1017.66 1019.40 1018.52 1020.21 1019.81 1020.31 1020.87 1021.78 1022.34 1021.99 1023.11 1022.88 1023.15 1023.18 1023.50 1023.39 1023.45 1023.67 1023.86 1023.95 1023.98 1023.92 1023.86 1023.99 1023.93 1023.73 1023.52 1023.58 1023.48 1023.33 1022.98 1022.78 1022.64 1022.26 1022.12 1021.99 1021.75 1021.64
1016.54 1016.59 1017.40 1018.44 1019.38 1019.74 1019.72 1018.69 1017.62 1017.23 1017.50 1018.58 1018.61 1019.98 1019.92 1020.11 1020.74 1021.00 1021.77 1022.89 1023.47 1023.36 1023.31 1023.62 1023.71 1023.85 1023.92 1023.99 1024.26 1024.39 1024.53 1024.65 1024.59 1024.57 1024.62 1024.60 1024.44 1024.29 1024.13 1023.86 1023.62 1023.41 1023.23 1022.90 1022.58 1022.40 1022.27 1022.02 1021.83
1016.69 1017.07 1017.33 1018.22 1019.57 1019.50 1019.23 1018.24 1017.76 1017.72 1018.29 1018.60 1019.53 1020.66 1020.09 1020.37 1020.78 1021.73 1022.51 1023.18 1023.65 1023.86 1023.83 1024.12 1024.21 1024.54 1024.67 1024.79 1025.02 1025.27 1025.23 1025.27 1025.13 1025.31 1025.30 1025.00 1024.77 1024.43 1024.34 1024.03 1023.92 1023.50 1023.38 1023.17 1022.86 1022.68 1022.38 1022.07 1021.93
1016.26 1016.99 1018.11 1018.48 1019.68 1019.75 1019.27 1018.40 1017.82 1018.01 1018.35 1018.91 1019.27 1019.60 1020.74 1020.94 1021.30 1022.30 1023.04 1023.68 1024.18 1024.37 1024.82 1024.66 1024.60 1025.01 1025.41 1025.55 1025.70 1025.85 1025.90 1025.78 1025.98 1026.05 1026.00 1025.70 1025.43 1025.01 1024.67 1024.36 1024.07 1023.87 1023.59 1023.35 1023.02 1022.77 1022.40 1022.21 1021.86
1016.79 1017.56 1017.44 1017.88 1018.84 1018.97 1019.31 1018.49 1017.90 1017.80 1018.09 1018.24 1019.00 1019.79 1020.20 1020.79 1021.67 1022.58 1023.25 1024.01 1024.55 1024.95 1025.12 1025.34 1025.47 1025.60 1025.77 1026.00 1026.18 1026.17 1026.28 1026.39 1026.56 1026.55 1026.41 1026.12 1025.79 1025.49 1025.18 1024.82 1024.44 1024.01 1023.87 1023.49 1023.25 1022.95 1022.53 1022.29 1022.01
1016.20 1016.66 1016.95 1017.71 1018.99 1019.09 1018.63 1018.65 1018.04 1018.05 1018.30 1018.75 1019.31 1019.82 1020.56 1021.03 1021.76 1022.75 1023.68 1024.47 1025.06 1025.62 1025.83 1025.77 1025.82 1025.86 1026.22 1026.45 1026.72 1026.88 1026.90 1026.99 1027.06 1027.09 1026.90 1026.54 1026.09 1025.68 1025.43 1025.07 1024.73 1024.40 1024.12 1023.79 1023.49 1023.22 1022.92 1022.53 1022.09
Wind_Speed
2 4 2 4 4 4 3 4 1 3 2 2 2 3 7 3 3 3 1 6 14 12 7 9 14 14 12 15 14 12 12 12 12 11 11 10 10 10 9 10 10 9 9 9 9 8 8 8 7
1 1 4 2 3 1 4 5 4 3 5 7 5 3 6 3 3 7 6 8 14 12 6 7 12 15 14 14 12 12 12 11 10 9 8 8 8 7 7 7 7 6 7 7 7 7 6 6 5
2 3 3 4 3 3 3 3 1 3 6 1 4 5 3 2 3 7 6 12 11 9 6 9 14 15 15 13 12 11 10 9 8 7 6 6 6 6 6 5 6 5 7 5 5 5 4 4 4
2 4 4 4 3 5 4 2 2 4 2 5 4 7 3 3 8 7 12 11 10 7 6 11 14 15 14 13 11 10 9 8 7 6 6 6 5 6 5 4 4 3 3 4 3 3 2 2 3
4 3 2 2 4 3 3 4 7 2 4 3 1 3 3 4 9 15 12 10 11 7 5 7 12 13 12 12 11 10 9 8 7 6 6 5 5 5 4 4 3 3 2 3 2 3 1 1 4
4 3 3 2 4 3 3 4 4 1 2 4 6 5 3 5 13 10 10 8 8 9 6 5 7 8 8 9 9 9 9 8 6 6 5 5 4 5 4 4 3 2 2 2 1 2 3 4 6
3 2 3 2 3 3 3 6 2 4 4 2 9 5 3 3 6 11 8 7 7 6 6 5 5 6 7 7 6 7 7 9 7 6 6 6 6 5 6 6 6 6 5 5 5 6 6 6 7
3 3 2 3 2 4 5 7 4 5 2 3 3 6 6 6 8 9 9 7 7 6 6 5 5 5 5 5 7 7 7 8 8 8 8 7 7 7 7 7 8 8 8 8 8 7 8 8 9
1 3 2 3 3 3 1 4 3 3 6 1 2 6 5 17 12 10 9 5 5 4 5 5 5 5 5 5 4 5 7 8 7 6 6 5 3 5 6 6 7 9 9 9 9 9 9 9 9
3 3 7 5 3 4 2 3 8 5 4 2 3 5 14 17 14 12 10 10 7 6 6 6 5 5 5 4 5 4 4 4 3 4 4 3 4 4 5 6 8 9 9 10 11 11 10 7 4
2 4 3 6 2 1 4 2 3 9 3 7 8 15 15 17 12 11 8 10 11 7 5 7 6 6 6 4 3 2 2 3 3 5 4 4 3 3 3 3 3 4 5 4 5 5 4 5 4
3 5 3 6 4 5 3 5 4 5 4 6 12 20 15 16 13 12 10 7 7 6 8 7 7 6 6 3 4 4 3 3 4 5 6 4 3 4 4 3 4 4 3 5 4 3 5 6 6
4 2 6 6 9 5 5 6 5 5 4 10 12 14 14 12 10 7 9 7 6 6 7 7 7 7 6 6 4 3 4 4 5 4 5 4 4 4 3 4 3 4 4 4 4 4 5 5 6
3 2 7 6 5 4 3 3 4 1 7 10 16 11 11 12 11 6 7 8 7 7 8 7 8 8 6 6 5 4 4 4 4 4 4 5 4 4 4 4 4 4 4 4 4 4 5 5 4
3 4 6 3 2 4 1 2 6 5 8 13 10 7 7 9 9 11 9 8 9 6 7 8 7 7 7 7 6 4 4 4 4 4 5 6 5 5 5 4 4 4 4 5 4 5 4 5 4
4 3 1 2 5 2 5 9 2 7 13 9 9 7 7 8 8 7 8 7 7 6 8 7 5 7 6 6 5 4 4 4 4 4 4 6 7 7 5 4 5 5 4 3 3 3 4 5 5
4 5 5 2 2 2 4 5 4 6 8 10 9 8 8 6 5 7 8 8 8 8 7 7 7 7 8 6 4 3 4 4 4 3 4 5 6 6 5 4 5 5 4 3 3 2 3 5 5
6 3 5 8 1 2 5 5 2 7 8 10 8 8 7 7 10 6 5 2 2 2 2 1 1 1 2 1 0 1 2 4 2 3 3 5 4 6 4 4 4 3 3 2 2 2 2 3 4
7 7 7 2 1 1 4 3 3 2 3 7 7 7 7 6 4 5 5 6 7 7 6 5 3 3 1 0 1 1 3 2 2 3 5 5 4 5 4 2 3 4 4 3 3 2 3 3 1
10 12 9 3 3 3 1 3 0 2 5 6 9 8 8 6 5 6 7 7 8 5 6 7 7 6 5 2 2 2 2 2 2 3 5 6 6 6 5 5 4 5 4 5 4 3 3 3 1
5 16 10 5 3 2 3 2 1 2 1 3 4 7 6 9 9 6 7 6 6 7 6 6 6 6 6 5 2 2 2 3 4 4 4 5 7 6 6 6 5 5 3 3 3 3 4 5 4
8 4 8 7 6 11 2 8 4 2 4 5 6 9 9 9 5 6 6 6 6 5 6 7 7 6 6 6 5 5 3 2 2 2 3 5 7 7 6 6 6 5 4 5 4 4 3 4 7
3 13 9 4 5 3 2 4 4 3 6 5 5 7 8 8 6 7 7 7 6 5 6 6 6 8 7 7 6 5 5 2 2 3 6 6 6 7 8 7 6 6 4 5 5 5 5 2 4
10 10 10 5 3 2 4 3 4 8 6 3 2 6 5 8 9 7 5 6 7 6 6 7 6 7 8 7 8 8 7 5 5 5 4 4 4 4 7 6 6 5 5 5 4 4 5 4 3
12 10 4 3 3 2 6 3 4 6 2 3 8 9 4 7 8 9 7 5 8 5 6 6 7 7 7 8 8 7 7 7 6 5 5 6 5 4 7 6 6 5 6 6 5 5 5 4 4
17 5 5 5 4 3 4 4 5 6 3 3 6 7 4 10 7 9 8 5 4 5 6 6 7 7 7 7 7 7 7 4 4 6 4 4 3 4 6 6 6 7 7 6 5 4 4 5 5
5 3 1 6 2 3 4 4 2 5 5 8 10 9 10 5 7 8 6 5 4 5 6 6 7 7 7 8 7 7 7 7 6 7 5 4 5 5 6 6 6 7 6 6 6 4 5 5 4
3 5 4 2 4 1 2 3 3 4 10 11 13 10 8 6 9 7 6 5 4 5 5 7 7 8 7 7 6 6 7 8 7 7 8 7 5 6 7 7 7 7 6 6 6 5 5 5 4
6 2 1 5 2 5 4 4 2 4 7 13 10 10 11 9 8 7 6 5 6 6 6 6 7 7 7 7 7 8 7 7 6 6 6 6 6 7 7 6 7 7 7 7 6 6 6 7 7
0 7 4 4 3 2 1 1 2 4 4 6 6 7 6 8 8 7 6 7 6 6 5 6 6 8 6 6 7 7 7 6 6 5 5 5 6 6 7 7 7 7 7 7 6 7 7 7 8
Wind_Direction
63 123 96 41 60 62 253 258 254 119 104 349 47 133 145 51 139 196 27 127 132 142 153 152 145 140 128 136 130 137 123 115 108 103 99 98 94 96 111 107 104 103 97 94 88 83 79 74 75
206 165 36 82 98 92 281 303 162 170 149 136 87 73 51 77 83 116 108 148 140 144 139 137 146 142 133 130 140 136 129 123 118 112 107 103 101 102 97 94 84 102 114 102 99 94 84 75 63
176 46 84 98 110 193 237 271 246 96 155 16 94 56 97 122 64 143 135 138 136 138 130 137 142 142 140 141 140 138 133 127 122 122 120 115 113 108 105 105 80 60 124 123 113 112 101 75 45
102 11 26 92 227 231 207 219 168 149 143 59 112 64 42 260 153 145 136 133 131 135 133 145 145 146 148 149 148 143 137 132 130 130 130 122 121 116 117 106 96 86 47 186 134 136 107 68 17
34 62 65 92 266 246 198 184 149 202 118 89 59 140 49 21 108 128 134 136 141 131 135 147 150 153 154 156 153 149 145 139 137 135 134 129 134 140 140 129 116 106 77 70 27 150 223 316 329
34 84 69 186 254 312 8 127 155 158 120 157 81 92 102 126 127 137 139 138 142 139 135 145 147 151 155 158 160 162 161 151 148 148 148 141 143 166 167 173 187 208 240 239 209 223 258 279 291
87 79 205 193 258 311 170 126 168 168 140 200 145 90 87 147 146 137 122 113 116 124 126 128 137 144 152 162 174 183 185 158 162 169 171 174 181 194 205 215 219 226 237 245 250 244 251 262 270
106 86 247 218 242 266 186 150 166 153 179 92 146 159 166 177 141 112 108 113 116 126 135 147 149 152 163 176 186 199 199 177 180 189 196 197 207 215 224 228 239 240 241 242 245 248 253 264 273
39 64 232 245 185 311 33 130 145 91 114 9 67 148 179 134 127 117 115 96 109 139 156 159 166 172 175 183 203 210 190 188 194 203 216 225 236 247 253 253 248 258 266 267 264 261 260 265 273
118 149 215 238 346 318 241 210 161 117 129 25 52 53 125 137 145 147 154 155 161 174 183 179 177 182 180 188 182 193 192 206 226 224 230 239 249 254 255 253 257 261 267 268 266 266 267 277 271
188 203 240 294 272 287 276 171 214 123 227 200 177 146 145 147 154 155 163 169 180 181 178 185 184 188 184 203 186 205 200 205 224 231 237 248 261 265 274 276 270 264 265 265 273 280 270 268 265
236 248 239 284 299 347 268 160 203 167 226 171 158 151 149 155 164 165 169 171 175 182 189 188 190 188 197 188 187 191 198 217 226 220 212 207 223 242 252 256 269 271 271 272 259 266 274 270 263
191 281 304 285 304 271 279 252 195 195 78 112 131 149 155 158 166 171 176 172 173 192 199 204 189 192 197 200 200 201 211 208 222 233 241 223 232 242 248 249 251 249 259 254 269 268 268 271 270
126 234 271 275 274 277 241 246 174 140 133 124 147 158 162 163 166 160 175 185 184 194 202 206 203 198 186 204 203 210 221 230 230 228 232 236 243 252 250 251 244 246 242 259 264 265 269 271 263
133 334 317 224 219 255 196 270 229 137 140 146 157 155 160 172 165 185 187 187 185 202 206 198 206 203 192 195 204 209 218 220 237 235 236 235 228 233 245 261 267 251 246 261 265 271 270 280 283
154 142 225 315 180 236 141 243 214 148 146 164 157 165 171 191 186 187 183 192 188 191 198 199 194 194 204 206 209 209 220 223 236 243 245 230 229 224 228 232 250 252 238 237 245 255 280 266 262
227 182 165 299 36 218 155 242 161 160 163 170 170 172 188 190 201 214 206 198 184 196 198 207 207 202 209 223 225 228 246 233 238 245 250 262 259 248 233 243 255 260 264 254 276 288 260 290 298
176 177 188 196 277 288 134 279 311 177 170 184 177 174 187 195 214 222 226 205 115 173 196 181 211 231 218 222 37 254 265 266 263 292 297 291 274 261 238 256 274 271 261 291 313 299 314 282 299
190 197 213 144 50 190 199 197 260 198 166 172 192 180 188 205 37 57 66 99 98 51 76 53 106 15 103 83 231 251 254 348 24 26 1 7 4 16 21 14 17 9 4 4 6 343 325 309 332
163 189 200 123 333 152 235 191 210 188 222 198 190 179 168 122 77 65 69 62 66 81 66 62 58 47 38 40 19 27 35 43 61 24 33 26 28 21 32 34 18 23 4 9 8 13 326 289 346
187 189 176 190 162 63 117 298 148 220 145 123 124 128 123 140 129 104 84 75 74 65 55 65 64 53 39 29 49 36 36 26 25 23 17 12 14 20 26 35 33 23 18 4 349 349 345 310 313
190 157 131 135 178 210 141 239 253 158 232 152 118 110 116 117 100 98 92 69 63 57 57 70 68 61 46 36 54 61 65 56 14 31 17 9 21 28 23 26 27 20 12 8 349 354 347 328 311
155 133 104 78 88 131 153 195 185 130 230 181 157 117 122 125 125 119 106 85 49 47 78 52 55 66 46 51 61 73 69 44 23 30 36 20 16 32 24 19 19 17 9 1 2 355 354 332 319
118 104 64 50 74 226 176 181 231 186 169 106 349 106 128 128 113 78 58 100 81 32 50 65 63 47 51 51 47 59 62 47 47 29 26 10 4 23 22 9 13 8 5 356 345 343 338 324 316
121 121 130 152 183 220 151 131 249 272 235 66 183 109 175 132 122 111 90 67 72 83 67 72 66 52 51 57 50 48 53 52 54 37 22 15 3 7 2 1 0 358 354 347 348 344 332 330 323
160 171 144 154 170 141 167 207 245 206 278 175 106 136 143 134 138 119 113 111 117 91 84 81 73 63 49 55 53 46 41 43 46 36 29 25 21 360 354 358 0 357 350 348 348 337 330 329 328
156 142 53 106 42 96 186 256 165 128 155 162 166 188 156 112 100 120 123 127 89 88 71 82 80 67 53 52 51 43 42 42 43 35 27 26 17 4 359 2 353 353 350 345 344 338 333 330 308
154 136 113 5 125 189 281 279 209 159 156 161 155 154 158 144 123 125 136 139 113 86 87 74 71 73 66 64 57 57 48 45 38 36 25 19 4 3 2 1 358 350 345 346 348 334 320 319 312
137 191 121 113 147 156 140 246 320 176 182 164 160 162 154 142 139 150 143 118 105 88 79 80 74 75 65 61 56 55 45 41 35 34 14 8 357 358 355 349 345 351 343 343 342 333 326 333 322
275 159 149 117 229 34 116 229 347 287 218 157 151 146 138 144 147 144 136 127 106 99 91 81 73 73 67 67 60 51 44 33 29 16 359 350 353 348 346 345 345 343 337 330 328 327 326 319 321